This is the latest recevied weather packets stored in our database for station/object N2PPN. If no packets are shown the sender has not sent any weather packets the latest 10 day(s).
| Time | Temp. | Humidity | Pressure | Rain* | Wind** | Luminosity | Snow |
|---|---|---|---|---|---|---|---|
| 1777920597 | 17.78° C | 59% | 1014.3 hPa | 0 mm | - | 639 W/m² | - |
| 1777920293 | 17.78° C | 58% | 1014.3 hPa | 0 mm | - | 649 W/m² | - |
| 1777919988 | 17.78° C | 59% | 1014.5 hPa | 0 mm | - | 664 W/m² | - |
| 1777919686 | 17.78° C | 59% | 1014.4 hPa | 0 mm | - | 670 W/m² | - |
| 1777919384 | 17.78° C | 59% | 1014.5 hPa | 0 mm | - | 673 W/m² | - |
| 1777919080 | 18.33° C | 57% | 1014.5 hPa | 0 mm | - | 680 W/m² | - |
| 1777918778 | 18.33° C | 57% | 1014.4 hPa | 0 mm | - | 675 W/m² | - |
| 1777918475 | 18.33° C | 56% | 1014.6 hPa | 0 mm | - | 691 W/m² | - |
| 1777918173 | 17.22° C | 56% | 1014.6 hPa | 0 mm | - | 695 W/m² | - |
| 1777917872 | 17.78° C | 57% | 1014.8 hPa | 0 mm | - | 696 W/m² | - |
| 1777917570 | 18.33° C | 56% | 1014.7 hPa | 0 mm | - | 698 W/m² | - |
| 1777917266 | 17.78° C | 57% | 1014.6 hPa | 0 mm | - | 707 W/m² | - |
| 1777916964 | 17.78° C | 59% | 1014.7 hPa | 0 mm | - | 715 W/m² | - |
| 1777916662 | 17.78° C | 58% | 1014.6 hPa | 0 mm | - | 715 W/m² | - |
| 1777916359 | 17.78° C | 59% | 1014.8 hPa | 0 mm | - | 724 W/m² | - |
| 1777916055 | 17.78° C | 59% | 1014.8 hPa | 0 mm | - | 723 W/m² | - |
| 1777915753 | 17.78° C | 59% | 1014.7 hPa | 0 mm | - | 722 W/m² | - |
| 1777915449 | 17.22° C | 57% | 1014.7 hPa | 0 mm | - | 729 W/m² | - |
| 1777915145 | 17.78° C | 58% | 1014.8 hPa | 0 mm | - | 726 W/m² | - |
| 1777914842 | 18.89° C | 56% | 1015.1 hPa | 0 mm | - | 726 W/m² | - |
| 1777914539 | 17.78° C | 59% | 1015 hPa | 0 mm | - | 728 W/m² | - |
| 1777914236 | 17.22° C | 60% | 1015.4 hPa | 0 mm | - | 730 W/m² | - |
| 1777913932 | 17.78° C | 59% | 1015.2 hPa | 0 mm | - | 735 W/m² | - |
| 1777913629 | 17.22° C | 58% | 1015.3 hPa | 0 mm | - | 733 W/m² | - |
| 1777913325 | 17.22° C | 58% | 1015.3 hPa | 0 mm | - | 730 W/m² | - |
* Rain latest hour (hover to see other rain measurements)
** Current wind speed in m/s (hover to see current wind gust speed)